Date,TemperatureHighF,TemperatureAvgF,TemperatureLowF,DewpointHighF,DewpointAvgF,DewpointLowF,HumidityHigh,HumidityAvg,HumidityLow,PressureMaxIn,PressureMinIn,WindSpeedMaxMPH,WindSpeedAvgMPH,GustSpeedMaxMPH,PrecipitationSumIn
2013-1-29,6.5,6.5,6.5,-8.6,-8.6,-8.6,49,49,49,29.62,29.61,2,2,2,0.00
2013-1-30,6.5,6.5,6.5,-8.6,-8.6,-8.6,49,49,49,29.58,29.48,2,2,2,0.00
2013-1-31,6.5,6.5,6.5,-8.6,-8.6,-8.6,49,49,49,29.83,29.71,2,2,2,0.00
2013-2-1,6.5,6.5,6.5,-8.6,-8.6,-8.6,49,49,49,29.75,29.52,4,3,4,0.00
2013-2-2,39.3,19.6,6.5,38.5,10.2,-8.6,97,68,49,29.50,29.16,4,2,4,0.00
2013-2-3,42.7,39.6,38.8,38.5,35.1,31.9,97,84,73,29.36,29.12,5,2,9,0.00
2013-2-4,38.8,38.8,38.8,31.9,31.9,31.9,76,76,76,29.54,29.43,5,5,5,0.00
2013-2-5,38.8,36.7,33.8,34.0,31.9,30.9,93,83,76,29.54,29.44,5,2,5,0.00
2013-2-6,34.4,34.4,34.4,30.9,30.9,30.9,87,87,87,29.56,29.43,0,0,0,0.00
2013-2-7,34.4,34.4,34.4,30.9,30.9,30.9,87,87,87,29.48,29.15,0,0,0,0.00
2013-2-8,34.4,34.4,34.4,30.9,30.9,30.9,87,87,87,29.61,29.36,0,0,0,0.00
2013-2-9,34.4,34.4,34.4,30.9,30.9,30.9,87,87,87,29.31,28.84,0,0,0,0.00
2013-2-10,34.4,34.4,34.4,30.9,30.9,30.9,87,87,87,29.43,28.81,0,0,0,0.00
2013-2-11,34.4,31.4,26.7,30.9,25.4,17.9,87,79,66,29.65,29.60,0,0,5,0.00
2013-2-12,34.4,29.8,27.8,30.6,21.7,17.9,86,72,66,29.62,29.57,0,0,0,0.00
2013-2-13,34.4,34.4,34.4,30.6,30.6,30.6,86,86,86,29.69,29.45,0,0,0,0.00
2013-2-14,34.4,34.4,34.4,30.6,30.6,30.6,86,86,86,29.40,29.08,0,0,0,0.00
2013-2-15,34.4,30.7,24.1,30.6,25.5,17.6,86,81,70,29.86,29.60,6,1,19,0.00
2013-2-16,27.8,25.2,21.3,17.6,17.0,15.5,78,71,62,29.95,29.58,0,0,2,0.00
2013-2-17,27.8,27.8,27.8,16.5,16.5,16.5,62,62,62,29.67,29.45,0,0,0,0.00
2013-2-18,27.8,24.5,22.1,16.5,12.4,10.0,62,60,57,29.79,29.68,5,2,12,0.00
2013-2-19,22.1,22.1,22.1,10.0,10.0,10.0,59,59,59,29.54,29.04,0,0,0,0.00
2013-2-20,34.4,29.3,22.1,30.6,24.0,10.0,91,81,59,29.14,28.89,2,0,3,0.04
2013-2-21,29.6,29.6,29.6,27.3,27.3,27.3,91,91,91,29.13,29.05,2,2,2,0.00
2013-2-22,29.6,28.8,28.1,27.3,22.8,19.4,91,78,69,29.39,29.23,7,4,16,0.00
2013-2-23,28.1,28.1,28.1,19.6,19.6,19.6,70,70,70,29.18,28.97,5,5,5,0.00
2013-3-29,39.9,25.1,0.0,35.5,22.4,0.0,88,57,82,29.90,29.68,3,0,11,0.00
2013-3-30,40.3,37.6,36.3,38.2,34.7,33.1,97,89,83,30.15,29.91,2,0,3,0.01
2013-3-31,41.1,37.6,34.7,35.9,34.5,33.4,97,89,78,30.17,30.06,3,1,7,0.00
2013-4-1,39.8,37.1,33.2,36.2,33.3,31.9,97,86,80,30.06,29.92,6,2,15,0.00
2013-4-2,43.4,38.5,33.8,33.0,30.1,26.2,95,72,56,30.08,29.96,6,2,13,0.00
2013-4-3,45.4,40.3,36.8,33.3,27.8,26.2,76,61,53,30.14,30.08,6,1,12,0.00
2013-4-4,42.3,39.7,32.5,30.2,27.5,24.4,83,62,53,30.11,29.69,5,1,7,0.00
2013-4-5,39.7,37.2,32.0,26.7,25.1,22.6,74,62,54,29.68,29.42,5,3,7,0.00
2013-4-6,34.4,33.5,29.8,26.7,25.1,21.6,75,71,63,29.52,29.36,7,1,16,0.01
2013-4-7,29.8,25.4,20.6,21.6,15.7,9.3,71,66,59,29.75,29.54,10,2,21,0.00
2013-4-8,26.6,23.4,19.9,14.7,12.3,11.1,73,62,57,29.73,29.35,10,4,15,0.00
2013-4-17,36.8,33.8,29.4,17.9,15.0,12.9,56,46,41,30.09,30.07,6,3,17,0.00
2013-4-18,41.1,34.8,23.1,26.9,21.3,16.4,77,58,43,30.11,30.03,5,1,13,0.00
2013-4-19,41.3,35.2,25.4,27.0,22.8,18.6,77,61,50,30.26,30.08,3,1,7,0.00
2013-4-20,45.5,38.2,27.0,29.5,25.3,21.7,81,61,45,30.34,30.29,4,0,13,0.00
2013-4-21,37.4,35.7,34.4,34.0,30.8,27.4,94,83,67,30.31,30.20,8,2,16,0.14
2013-4-22,43.6,39.2,29.8,34.9,33.1,28.8,96,79,63,30.42,30.34,4,1,5,0.01
2013-4-23,41.6,39.4,36.8,40.0,38.0,35.1,96,95,90,30.36,30.28,1,0,4,0.21
2013-4-24,45.9,40.2,36.6,38.0,35.8,33.8,97,85,72,30.30,29.77,4,0,9,0.01
2013-4-25,43.0,38.8,33.7,35.2,23.3,16.6,87,55,37,29.79,29.62,17,8,25,0.01
2013-4-26,39.8,34.3,28.9,27.6,19.1,13.6,72,54,42,29.70,29.42,6,2,17,0.00
2013-4-27,35.0,31.2,28.8,24.2,22.3,21.0,78,70,58,29.61,29.45,4,0,9,0.00
2013-4-30,47.3,41.8,36.0,34.1,31.8,28.5,88,69,48,29.93,29.72,3,1,12,0.00
2013-5-1,45.6,41.1,30.9,33.9,31.3,29.1,93,69,58,29.56,29.47,3,1,9,0.00
2013-5-2,42.5,39.7,35.0,39.3,36.9,33.7,95,90,85,29.79,29.65,2,0,7,0.02
2013-5-3,46.3,39.9,37.2,37.7,35.4,31.8,93,84,68,29.87,29.70,5,1,14,0.01
2013-5-4,39.8,36.8,32.9,37.3,33.5,27.6,96,88,73,29.90,29.71,7,2,20,0.13
2013-5-5,42.7,38.6,30.1,34.7,30.3,26.1,88,72,62,30.11,29.93,10,1,15,0.00
2013-5-6,41.7,36.7,31.2,33.8,29.3,24.9,83,75,67,30.19,30.11,4,1,12,0.00
2013-5-7,43.2,38.8,32.5,35.1,32.1,28.7,86,77,66,30.23,30.20,5,0,9,0.00
2013-5-8,46.1,40.9,33.9,36.8,34.7,31.5,93,79,68,30.23,30.15,3,1,8,0.00
2013-5-9,48.0,42.3,35.6,39.1,36.8,32.1,91,81,71,30.22,30.17,3,0,5,0.00
2013-5-10,51.1,42.4,34.0,40.5,36.8,32.5,95,82,63,30.13,29.90,4,0,5,0.00
2013-5-11,45.7,43.3,39.7,40.6,39.7,37.8,94,87,81,29.83,29.59,4,0,5,0.01
2013-5-12,49.2,43.4,40.6,45.6,41.5,39.2,97,93,77,29.50,29.44,2,0,6,0.04
2013-5-13,45.9,42.6,39.2,42.9,38.2,34.3,96,85,72,29.43,29.35,6,1,15,0.01
2013-5-14,43.7,41.2,38.0,36.4,32.7,30.2,90,72,59,29.58,29.41,14,4,21,0.00
2013-5-15,47.3,42.9,32.8,33.2,29.0,24.1,76,59,42,29.68,29.63,7,2,15,0.00
2013-5-16,47.3,43.9,38.4,39.1,37.0,33.3,93,77,66,29.55,29.36,3,1,10,0.02
2013-5-17,44.6,40.1,34.4,38.7,35.7,31.4,96,85,67,29.42,29.36,11,2,19,0.35
2013-5-18,39.1,35.8,32.5,31.0,25.9,22.0,90,68,52,29.97,29.51,11,4,16,0.01
2013-5-19,45.3,40.5,30.6,27.6,24.3,20.3,80,53,41,30.53,30.13,11,3,20,0.00
2013-5-20,46.2,40.2,31.0,36.5,31.8,24.0,76,72,60,30.59,30.51,6,1,10,0.00
2013-5-21,49.3,44.9,37.9,40.2,37.5,34.1,86,75,67,30.50,30.21,5,1,6,0.00
2013-5-22,48.2,45.1,40.5,44.7,40.9,36.7,91,85,80,30.17,30.07,3,0,5,0.02
2013-5-23,52.2,46.7,42.5,45.9,43.2,40.9,94,88,79,30.09,30.06,4,1,6,0.00
2013-5-24,55.5,49.8,41.8,44.3,42.4,39.6,93,77,64,30.06,29.95,2,0,7,0.00
2013-5-25,52.5,48.3,39.2,45.4,42.5,37.3,93,81,71,29.95,29.86,6,1,10,0.00
2013-5-26,49.0,43.2,38.2,43.1,40.0,36.5,96,89,80,29.87,29.83,6,1,13,0.00
2013-5-27,52.0,48.5,42.0,44.8,43.1,40.6,95,82,72,29.83,29.75,3,1,11,0.00
2013-5-28,62.0,52.1,38.1,49.7,44.5,36.8,96,76,63,29.74,29.59,3,1,5,0.00
2013-5-29,59.0,53.0,45.0,47.9,45.6,41.4,87,76,62,29.70,29.61,4,1,6,0.00
2013-5-30,51.5,48.4,41.7,45.9,44.0,39.0,91,85,79,29.95,29.75,4,1,7,0.00
2013-5-31,50.2,47.7,42.0,46.2,45.0,40.7,95,90,85,30.09,29.99,5,1,14,0.00
2013-6-1,49.5,47.4,45.6,47.1,45.8,44.5,97,94,87,30.16,30.12,0,0,4,0.05
2013-6-2,58.2,49.7,40.7,45.4,41.7,39.7,96,76,56,30.18,30.01,4,1,13,0.00
2013-6-3,54.9,49.1,45.0,43.9,40.5,38.8,92,73,56,29.99,29.66,5,0,10,0.00
2013-6-4,50.7,48.1,43.7,45.9,44.4,41.7,96,87,81,29.78,29.61,3,1,6,0.03
2013-6-5,55.3,49.1,39.1,46.0,43.6,37.8,96,82,66,29.92,29.79,3,1,7,0.00
2013-6-6,57.2,50.5,41.1,45.4,41.1,36.6,86,71,59,29.86,29.70,12,2,16,0.00
2013-6-7,61.9,52.2,40.6,47.6,42.2,36.2,84,70,50,29.86,29.70,3,1,9,0.00
2013-6-8,65.9,56.8,47.7,48.2,46.1,42.0,88,68,50,30.07,29.89,4,1,9,0.00
2013-6-9,62.3,56.8,45.8,49.8,46.5,41.9,87,69,56,30.18,30.09,4,1,10,0.00
2013-6-10,59.7,54.9,45.0,48.9,46.4,42.8,93,74,63,30.20,30.10,2,1,11,0.00
2013-6-11,64.7,56.1,46.0,49.1,46.3,43.6,93,72,50,30.08,29.96,4,1,15,0.00
2013-6-12,57.5,50.4,45.0,49.7,45.4,42.2,90,83,73,29.97,29.93,3,0,7,0.00
2013-6-13,59.8,50.4,45.5,50.0,46.8,44.3,97,88,70,30.08,29.96,4,1,5,0.00
2013-6-14,59.0,52.4,42.9,51.8,48.2,41.8,97,86,75,30.20,30.14,3,1,7,0.00
2013-6-15,55.9,51.6,45.9,50.5,48.3,44.8,96,89,82,30.27,30.20,4,1,5,0.00
2013-6-16,61.8,55.9,46.4,53.4,49.9,45.5,97,81,69,30.19,30.09,3,1,6,0.00
2013-6-17,64.3,57.3,49.0,54.0,51.1,46.9,94,81,67,30.09,29.85,5,1,7,0.00
2013-6-18,73.0,62.6,53.4,55.4,50.7,46.2,90,68,39,29.81,29.76,5,2,16,0.00
2013-6-19,62.7,55.2,49.2,53.4,49.9,46.7,95,83,65,29.94,29.79,3,0,8,0.04
2013-6-20,57.3,54.5,49.7,51.6,50.0,47.2,94,85,77,29.98,29.93,10,2,12,0.00
2013-6-21,57.7,53.8,44.7,47.0,44.2,42.5,95,71,61,30.05,30.00,4,2,18,0.00
2013-6-22,54.6,52.4,45.1,48.2,46.4,41.8,94,80,74,29.99,29.74,3,1,10,0.00
2013-6-23,57.1,53.2,49.2,49.2,46.9,44.5,90,79,70,29.70,29.60,0,0,4,0.00
2013-6-24,58.9,53.7,48.0,51.9,50.0,46.6,96,87,77,29.64,29.60,4,1,6,0.00
2013-6-25,62.6,56.1,45.9,52.9,51.0,44.5,97,83,70,29.58,29.55,1,0,6,0.00
2013-6-26,63.2,58.0,49.4,59.1,53.8,47.8,95,86,70,29.76,29.56,0,0,6,0.01
2013-6-27,57.2,53.1,50.6,53.1,50.9,49.4,97,92,86,30.02,29.87,5,1,10,0.00
2013-6-28,57.5,55.0,52.0,52.5,51.6,50.3,96,88,83,30.13,30.07,2,0,4,0.00
2013-6-29,55.8,53.7,50.1,52.3,50.2,48.4,94,88,81,30.08,29.99,4,1,7,0.00
2013-6-30,57.5,53.6,47.0,51.4,48.6,45.9,97,84,69,30.00,29.82,5,1,19,0.00
2013-7-1,60.2,53.6,48.3,49.7,47.9,46.0,93,81,68,29.77,29.48,6,1,14,0.07
2013-7-2,57.3,54.0,48.1,50.4,47.9,45.9,94,80,67,29.80,29.57,3,1,9,0.00
2013-7-3,59.0,53.6,47.6,50.6,46.4,43.5,94,77,63,29.96,29.87,6,2,17,0.00
2013-7-4,55.6,53.0,49.4,49.9,47.4,43.5,89,82,70,30.01,29.91,11,1,18,0.00
2013-7-5,53.9,51.4,48.6,52.5,49.4,46.7,96,93,87,30.02,29.94,2,0,4,0.06
2013-7-6,60.9,52.7,47.4,53.3,48.7,46.6,97,87,66,29.96,29.69,4,0,10,0.01
2013-7-7,52.9,50.3,47.6,50.2,48.6,46.8,97,94,88,29.64,29.54,3,1,6,0.08
2013-7-8,56.2,52.2,47.0,50.8,48.4,45.9,96,87,79,29.81,29.66,3,1,5,0.00
2013-7-9,61.1,55.2,44.3,50.9,49.1,43.2,97,80,68,30.01,29.80,4,1,13,0.00
2013-7-10,64.7,57.4,46.4,53.1,50.0,45.3,97,77,63,30.02,29.90,5,1,6,0.00
2013-7-11,63.9,54.1,47.2,52.7,49.5,45.6,95,85,67,29.89,29.87,2,0,5,0.00
2013-7-15,58.3,56.4,54.0,53.5,52.4,51.4,91,87,84,30.25,30.23,2,1,5,0.00
2013-7-17,61.7,60.0,58.5,57.2,56.4,55.6,90,88,85,30.09,30.07,1,0,5,0.00
2013-7-18,65.9,61.1,58.6,59.2,57.1,56.2,95,87,79,30.14,30.11,5,2,9,0.00
2013-7-19,63.6,61.3,59.0,54.4,53.2,52.2,80,75,72,30.23,30.15,6,3,15,0.00
2013-7-20,65.3,61.5,54.7,54.1,52.7,50.6,86,73,67,30.14,30.06,6,2,14,0.00
2013-7-21,66.3,60.3,50.4,53.7,50.8,47.5,94,72,60,30.04,29.93,5,2,16,0.00
2013-7-22,69.9,63.4,50.8,54.1,51.2,47.6,90,66,45,30.04,29.95,3,1,9,0.00
2013-7-23,66.4,57.4,51.9,55.0,51.9,47.8,87,82,63,30.06,30.01,4,1,6,0.00
2013-7-24,68.7,62.5,52.5,58.4,55.4,51.1,97,78,65,30.00,29.91,3,1,6,0.00
2013-7-25,67.5,63.8,56.9,59.6,57.5,54.9,94,80,74,29.98,29.94,3,1,5,0.00
2013-7-26,58.3,57.2,56.1,56.6,55.7,54.4,96,94,90,30.23,30.04,1,0,3,0.01
2013-7-27,59.8,56.6,52.9,56.3,54.0,52.1,98,92,84,30.31,30.27,4,1,6,0.00
2013-7-28,60.0,56.6,52.2,55.2,53.8,51.1,97,90,83,30.27,30.15,3,1,5,0.00
2013-7-29,61.5,58.6,51.5,56.6,54.5,50.7,97,86,82,30.16,30.12,3,1,5,0.00
2013-7-30,61.3,54.8,51.0,55.4,52.1,50.2,97,91,81,30.18,30.15,2,0,5,0.00
2013-7-31,63.7,57.3,50.6,56.0,53.1,49.8,97,86,75,30.15,30.09,6,2,6,0.00
2013-8-1,63.9,58.0,51.2,56.2,53.1,50.4,97,84,68,30.06,29.93,1,0,9,0.01
2013-8-2,64.4,60.3,54.0,56.2,54.0,52.4,95,80,68,29.93,29.67,1,0,11,0.00
2013-8-3,61.7,60.2,58.4,52.6,51.7,50.5,76,73,72,29.81,29.58,10,5,20,0.01
2013-8-4,60.4,57.3,55.6,54.5,51.6,49.8,90,81,76,29.90,29.83,5,1,18,0.00
2013-8-5,58.7,55.3,53.2,53.3,51.6,50.5,93,87,75,29.91,29.85,0,0,7,0.00
2013-8-6,60.3,56.6,53.4,57.9,54.5,50.7,97,93,81,29.86,29.73,5,0,7,0.11
2013-8-7,62.3,56.4,53.9,58.9,54.3,53.1,97,88,75,29.74,29.62,2,0,4,0.03
2013-8-8,57.2,54.0,48.1,53.4,48.5,46.3,97,82,68,29.75,29.63,11,2,19,0.01
2013-8-9,58.2,54.0,50.1,55.0,51.5,47.6,97,91,79,29.70,29.56,3,0,9,0.03
2013-8-10,59.0,52.2,48.1,53.2,49.3,47.3,98,90,77,29.95,29.71,3,0,6,0.00
2013-8-11,50.6,50.4,49.6,49.8,49.5,48.2,97,97,95,29.97,29.90,0,0,2,0.05
2013-8-12,58.1,30.3,-59.1,56.4,29.4,-59.6,97,96,94,29.98,29.91,1,0,3,0.06
2013-8-13,59.0,-7.8,-52.2,55.5,-9.2,-52.7,97,94,82,29.98,29.94,1,0,5,0.00
2013-8-14,60.0,13.0,-52.2,53.1,10.1,-52.7,97,90,75,29.99,29.86,4,1,11,0.00
2013-8-15,60.0,25.6,-59.1,54.0,23.1,-59.6,97,91,78,29.86,29.72,3,0,7,0.00
2013-8-16,56.4,40.5,-56.8,55.0,39.3,-57.3,100,96,92,29.72,29.51,0,0,2,0.00
2013-8-17,60.6,4.8,-50.7,57.1,3.4,-51.4,97,94,87,29.51,29.43,0,0,5,0.00
2013-8-18,59.4,11.1,-50.7,56.7,9.4,-51.4,96,93,82,29.59,29.43,1,0,8,0.00
2013-8-19,55.7,25.6,-54.5,54.6,24.1,-55.2,96,94,81,29.71,29.60,0,0,6,0.14
2013-8-20,57.3,-0.5,-52.2,54.6,-2.8,-52.9,96,91,77,29.83,29.72,4,0,11,0.00
2013-8-21,56.0,30.6,-59.1,53.7,29.7,-42.7,96,90,77,29.82,29.70,0,0,7,0.20
2013-8-22,-38.3,-45.1,-59.1,-41.7,-48.3,-59.9,82,82,82,29.71,29.66,0,0,4,0.03
2013-8-23,60.5,-9.6,-47.2,51.8,-14.2,-53.1,94,80,63,29.67,29.51,6,1,14,0.01
2013-8-24,65.2,50.8,-39.3,53.9,46.0,-40.2,96,84,61,29.66,29.53,7,0,13,0.00
2013-8-25,62.8,51.6,43.0,51.5,47.1,41.7,96,85,62,29.68,29.62,2,0,4,0.00
2013-8-26,59.3,51.3,43.2,51.8,47.7,42.1,96,88,73,29.70,29.67,4,0,10,0.00
2013-8-27,60.7,54.4,49.2,52.6,50.4,47.8,95,87,70,29.76,29.71,3,0,6,0.00
2013-8-28,56.4,52.3,48.6,51.6,49.6,47.0,95,91,80,29.72,29.43,3,0,4,0.33
2013-8-29,58.1,52.7,51.0,56.1,51.2,49.6,95,95,92,29.79,29.40,4,0,9,0.59
2013-8-30,54.8,-2.6,-59.1,53.4,-3.9,-59.9,95,94,75,29.93,29.80,2,0,5,0.01
2013-8-31,53.7,-30.8,-50.7,50.8,-32.4,-53.6,95,92,75,29.92,29.80,5,0,7,0.01
2013-9-1,59.1,15.5,-54.5,53.7,12.6,-55.5,95,89,78,29.80,29.64,3,0,9,0.00
2013-9-2,61.1,57.4,52.0,53.4,48.4,45.2,94,73,57,29.65,29.42,21,4,37,0.04
2013-9-3,60.5,57.3,53.3,51.0,48.4,46.3,86,72,61,29.42,29.21,14,3,29,0.00
2013-9-4,59.0,52.7,45.6,51.0,47.9,41.0,92,84,70,29.74,29.34,4,0,10,0.00
2013-9-5,58.4,53.6,47.5,46.1,44.5,41.2,86,71,62,29.94,29.75,13,1,21,0.00
2013-9-6,60.8,52.3,46.3,55.9,48.9,42.8,95,88,70,29.90,29.24,11,2,18,0.17
2013-9-7,55.3,52.1,50.9,53.3,50.3,49.2,95,94,90,29.59,29.31,3,0,9,0.02
2013-9-8,61.1,54.4,49.9,51.2,47.6,43.5,94,79,54,29.73,29.48,7,1,19,0.00
2013-9-9,57.9,53.5,48.7,55.8,51.2,46.5,95,92,81,29.70,29.50,5,0,14,0.07
2013-9-10,63.1,54.3,51.2,57.0,51.2,49.5,94,90,68,29.66,29.58,3,0,11,0.03
2013-9-11,57.3,53.1,46.8,50.8,49.5,43.4,94,88,74,29.84,29.57,6,0,11,0.31
2013-9-12,55.7,50.4,44.0,48.9,46.0,42.5,95,85,73,29.91,29.76,6,1,13,0.00
2013-9-13,59.0,52.4,49.2,54.4,49.8,47.4,94,91,76,29.83,29.71,3,0,5,0.01
2013-9-14,53.9,50.5,49.7,52.2,48.8,48.0,94,94,92,29.83,29.81,1,0,3,0.00
2013-9-15,59.0,41.0,-50.7,52.2,37.6,-51.7,94,88,70,29.83,29.70,3,0,14,0.00
2013-9-16,53.4,42.5,-56.8,47.5,38.3,-57.8,94,86,68,29.69,29.46,10,1,16,0.00
2013-9-17,52.4,47.3,42.4,47.1,43.8,39.9,93,88,79,29.48,29.41,4,0,10,0.00
2013-9-18,48.7,47.2,45.8,47.0,45.3,43.4,94,93,91,29.55,29.49,0,0,5,0.00
2013-9-25,56.5,50.3,45.2,46.2,42.5,40.0,82,75,59,29.64,29.31,10,1,20,0.00
2013-9-26,52.5,50.9,47.4,48.9,45.4,44.5,94,82,74,29.56,29.11,2,1,5,0.01
2013-9-27,47.4,47.4,47.4,45.8,45.8,45.8,94,94,94,29.10,28.74,0,0,0,0.00
2013-9-28,51.0,48.0,45.2,46.8,45.2,41.0,94,90,80,29.11,29.02,3,0,9,0.00
2013-9-29,47.8,44.6,41.8,40.6,38.7,36.8,89,80,70,29.33,29.11,7,1,14,0.00
2013-9-30,50.9,44.1,36.6,41.9,38.1,34.8,94,80,62,29.57,29.33,5,1,11,0.00
2013-10-1,47.9,40.4,33.3,39.1,35.8,31.5,94,84,65,29.72,29.60,3,0,8,0.00
2013-10-2,49.7,41.6,36.5,43.4,37.5,33.7,95,86,59,29.75,29.66,3,0,7,0.00
2013-10-3,48.1,44.4,39.6,44.4,40.4,36.2,94,86,76,29.65,29.23,8,1,14,0.03
2013-10-4,50.8,44.2,39.3,47.4,41.7,37.7,95,91,79,29.72,29.38,2,0,8,0.00
2013-10-5,48.2,40.8,35.8,44.8,38.1,34.5,95,90,79,29.75,29.63,5,0,8,0.00
2013-10-6,45.5,43.0,41.6,40.4,38.9,38.0,94,85,76,29.67,29.64,2,0,10,0.00